TimePST,TemperatureF,Dew PointF,Humidity,Sea Level PressureIn,VisibilityMPH,Wind Direction,Wind SpeedMPH,Gust SpeedMPH,PrecipitationIn,Events,Conditions,WindDirDegrees,DateUTC
12:00 AM,41.0,41.0,100,30.05,1.0,West,9.2,-,N/A,Rain,Rain,280,2012-11-12 08:00:00
1:00 AM,41.0,41.0,100,30.05,1.0,West,8.1,-,N/A,Rain,Light Rain,270,2012-11-12 09:00:00
2:00 AM,41.0,41.0,100,30.06,1.0,West,6.9,-,N/A,Rain,Light Rain,260,2012-11-12 10:00:00
3:00 AM,41.0,41.0,100,30.06,1.0,West,8.1,-,N/A,Rain,Light Rain,270,2012-11-12 11:00:00
4:00 AM,41,41,99,30.07,1,West,6.9,,,Rain,Light Rain,270,2012-11-12 12:00:00
4:00 AM,41.0,41.0,100,30.07,1.0,West,8.1,-,N/A,Rain,Light Rain,280,2012-11-12 12:00:00
5:00 AM,41.0,41.0,100,30.08,1.0,West,8.1,-,N/A,Rain,Light Rain,270,2012-11-12 13:00:00
6:00 AM,41.0,41.0,100,30.08,1.0,West,8.1,-,N/A,Rain,Light Rain,260,2012-11-12 14:00:00
6:42 AM,41.0,-9999,N/A,-9999,1.5,West,6.9,-,N/A,Rain,Light Rain,260,2012-11-12 14:42:00
7:00 AM,42.8,41.0,93,30.09,1.5,West,8.1,-,N/A,,Overcast,270,2012-11-12 15:00:00
7:16 AM,42.8,-9999,N/A,-9999,1.5,West,5.8,-,N/A,,Light Drizzle,260,2012-11-12 15:16:00
8:00 AM,42.8,41.0,93,30.10,1.2,West,5.8,-,N/A,,Light Drizzle,280,2012-11-12 16:00:00
8:30 AM,42.8,-9999,N/A,-9999,3.0,West,5.8,-,N/A,,Overcast,270,2012-11-12 16:30:00
9:00 AM,42.8,42.8,100,30.12,3.0,West,4.6,-,N/A,,Overcast,280,2012-11-12 17:00:00
10:00 AM,44,43,93,30.13,3,West,4.6,,,,Mist,260,2012-11-12 18:00:00
10:00 AM,44.6,42.8,93,30.13,3.0,West,4.6,-,N/A,,Overcast,270,2012-11-12 18:00:00
10:12 AM,44.6,-9999,N/A,-9999,3.0,West,4.6,-,N/A,,Mostly Cloudy,270,2012-11-12 18:12:00
11:00 AM,44.6,44.6,100,30.14,3.0,WNW,6.9,-,N/A,,Mostly Cloudy,290,2012-11-12 19:00:00
11:18 AM,44.6,-9999,N/A,-9999,4.0,West,4.6,-,N/A,,Mostly Cloudy,280,2012-11-12 19:18:00
12:00 PM,44.6,44.6,100,30.14,6.0,West,2.3,-,N/A,,Mostly Cloudy,270,2012-11-12 20:00:00
1:00 PM,48.2,46.4,93,30.14,6.0,SE,9.2,-,N/A,,Light Drizzle,140,2012-11-12 21:00:00
2:00 PM,50.0,46.4,87,30.14,6.0,SE,5.8,-,N/A,,Light Drizzle,140,2012-11-12 22:00:00
2:13 PM,50.0,-9999,N/A,-9999,6.0,SE,8.1,-,N/A,Rain,Light Rain,130,2012-11-12 22:13:00
3:00 PM,48.2,46.4,93,30.14,6.0,South,5.8,-,N/A,Rain,Light Rain,170,2012-11-12 23:00:00
3:34 PM,48.2,-9999,N/A,-9999,12.0,WNW,10.4,-,N/A,Rain,Light Rain,300,2012-11-12 23:34:00
4:00 PM,48,46,91,30.15,12,East,2.3,,,Rain,Light Rain,80,2012-11-13 00:00:00
4:00 PM,48.2,46.4,93,30.15,12.0,East,4.6,-,N/A,,Mostly Cloudy,80,2012-11-13 00:00:00
5:00 PM,48.2,46.4,93,30.15,15.0,SSE,10.4,-,N/A,,Overcast,160,2012-11-13 01:00:00
6:00 PM,48.2,46.4,93,30.15,15.0,SSE,6.9,-,N/A,,Overcast,150,2012-11-13 02:00:00
7:00 PM,48.2,46.4,93,30.16,15.0,South,9.2,-,N/A,,Overcast,170,2012-11-13 03:00:00
8:00 PM,48.2,46.4,93,30.16,15.0,SSE,10.4,-,N/A,Rain,Light Rain,160,2012-11-13 04:00:00
9:00 PM,48.2,46.4,93,30.17,15.0,SSE,5.8,-,N/A,Rain,Light Rain,150,2012-11-13 05:00:00
9:42 PM,48.2,-9999,N/A,-9999,15.0,SSE,9.2,-,N/A,,Overcast,150,2012-11-13 05:42:00
10:00 PM,48,46,92,30.18,15,SSE,10.4,,,Rain,Light Rain,160,2012-11-13 06:00:00
10:00 PM,48.2,46.4,93,30.18,15.0,South,11.5,-,N/A,,Overcast,170,2012-11-13 06:00:00
11:00 PM,48.2,46.4,93,30.18,15.0,SE,4.6,-,N/A,,Overcast,140,2012-11-13 07:00:00